Showing default

TANSUO 1, 28220

Orbit data source: Space-Track

TANSUO 1, 28220 is a payload satellite owned by CASC (CN) in SSO that was launched on Sun, 18 Apr 2004 UTC via a CHANG ZHENG 2C launch vehicle from the Xichang Space Center, China (XSC). Payload-class satellites include a variety of spacecraft equipped with specific instruments for various scientific and technological missions. These include communications satellites like Starlink; space stations such as the ISS; scientific satellites like the Hubble; Earth observation satellites from companies like Planet Labs, Umbra, and HawkEye 360; GPS; miniature CubeSats for education and research; and military/defense satellites.

Loading next visibility...
Identifier
28220, 2004-012A
Orbit
SSO
Country
Flag of CNCN / PRC
Related business
Manufacturer
DFH/HARB
Mission
Operational Civil Imaging
Bus & Motor
SY, Unknown motor
Mass
204 kg wet, 204 kg dry
Launch date (UTC)
2004-04-18 (22 years ago)
Launch vehicle
CHANG ZHENG 2C
Launch site
Xichang Space Center, China (XSC)
Object type
Payload
Rocket body
Debris
Shape & HBR
Box + 1 Pan, 1.5 m
Radar Cross Section
2.043 m², Large (>1 m²)

Expand to show TLE details & history
Last TLE update: 12 hours ago

TLE from 12 hours ago
0 TANSUO 1
1 28220U 04012A   26126.15269922  .00014111  00000-0  44900-3 0  9992
2 28220  97.8695 201.5276 0006500 158.6007 201.5507 15.32697304204658
Epoch: 2026-05-06T03:39Z
TLE epoch observation values (Epoch: 2026-05-06T03:39:53.212Z)
Latitude
0.00001°
Longitude
-77.46141°
Altitude
475.003 km
Speed
7.626 km/s
True Right ascension
13h 26m 06s
True Declination
0° 00' 00"
Sunlit
Object was in full shadow at epoch
Visualization orbit readout
Latitude
Unknown
Longitude
Unknown
Altitude
Unknown
Speed
Unknown
Apparent Right ascension
Unknown
Apparent Declination
Unknown
Sunlit
N/A
Visualization observer readout
Local Sidereal Time
23:34:00
Azimuth
Unknown
Elevation
Unknown
Doppler factor
Unknown
Orbital elements
Apogee altitude
469.186 km
Perigee altitude
460.29 km
Semi-major axis
6,842.875 km
Eccentricity
0.00065
Inclination
97.8695°
RAAN
201.5276°
Arg. of periapsis
158.6007°
True anomaly
201.52336°
Mean anomaly
201.5507°
Eccentric anomaly
201.53703°
Mean motion
3.83429 °/min
Orbital period
93.89 mins
BSTAR
0.000449
Loading maneuver chart data...
Computing Atmospheric mass density...
Loading historical data...
Loading historical data...
Loading historical data...
Loading historical data...
Loading historical data...
Loading historical data...
Loading historical data...

Documentation

Showing up to 5 results
|